Tracking 18840 objects as of 18-November-2017
HD Live streaming from Space Station
objects crossing your sky now

FENGYUN 1C DEB

Track FENGYUN 1C DEB now!
10-day predictions


NORAD ID: 30356
Int'l Code: 1999-025ABT
Perigee: 834.8 km
Apogee: 916.3 km
Inclination: 98.9 °
Period: 102.3 minutes
Semi major axis: 7246 km
RCS: 0.038 m2 (small)
Launch date: May 10, 1999
Source: People's Republic of China (PRC)
Launch site: Taiyaun Space Center, China (TSC)

Note: This is SATELLITE DEBRIS
aabbcc
Your satellite tracking list
Your tracking list is empty




NASA's NSSDC Master Catalog

Two Line Element Set (TLE):
1 30356U 99025ABT 17321.61474042 +.00000233 +00000-0 +16262-3 0  9992
2 30356 098.8861 004.1633 0056216 340.5964 142.7392 14.07371540555204
Source of the keplerian elements: AFSPC